Tracking 29892 objects as of 21-Nov-2024
HD Live streaming from Space Station
objects crossing your sky now

STARLINK-6075

Track STARLINK-6075 now!
10-day predictions
STARLINK-6075 is classified as:


NORAD ID: 56102
Int'l Code: 2023-046K
Perigee: 562.6 km
Apogee: 564.3 km
Inclination: 43.0 °
Period: 95.8 minutes
Semi major axis: 6934 km
RCS: Unknown
Launch date: March 29, 2023
Source: United States (US)
Launch site: AIR FORCE EASTERN TEST RANGE (AFETR)
Your satellite tracking list
Your tracking list is empty




NASA's NSSDC Master Catalog

Two Line Element Set (TLE):
1 56102U 23046K   24325.05155921  .00001399  00000-0  11598-3 0  9992
2 56102  43.0020 218.0470 0001187 275.0277  85.0431 15.03429113 90665
Source of the keplerian elements: AFSPC